TimeEDT,TemperatureF,Dew PointF,Humidity,Sea Level PressureIn,VisibilityMPH,Wind Direction,Wind SpeedMPH,Gust SpeedMPH,PrecipitationIn,Events,Conditions,WindDirDegrees,DateUTC
12:15 AM,46.4,46.4,100,30.14,10.0,Calm,Calm,-,N/A,,Clear,0,2012-10-23 04:15:00
12:35 AM,46.4,46.4,100,30.14,10.0,Calm,Calm,-,N/A,,Clear,0,2012-10-23 04:35:00
12:55 AM,46.4,44.6,93,30.13,9.0,Calm,Calm,-,N/A,,Clear,0,2012-10-23 04:55:00
1:15 AM,46.4,44.6,93,30.14,10.0,Calm,Calm,-,N/A,,Clear,0,2012-10-23 05:15:00
1:35 AM,46.4,44.6,93,30.13,10.0,Calm,Calm,-,N/A,,Clear,0,2012-10-23 05:35:00
2:15 AM,44.6,44.6,100,30.12,10.0,Calm,Calm,-,N/A,,Clear,0,2012-10-23 06:15:00
2:35 AM,46.4,46.4,100,30.12,10.0,Calm,Calm,-,N/A,,Clear,0,2012-10-23 06:35:00
2:55 AM,46.4,46.4,100,30.12,10.0,Calm,Calm,-,N/A,,Clear,0,2012-10-23 06:55:00
3:15 AM,46.4,46.4,100,30.12,10.0,Calm,Calm,-,N/A,,Clear,0,2012-10-23 07:15:00
3:55 AM,44.6,44.6,100,30.11,10.0,SSE,4.6,-,N/A,,Clear,160,2012-10-23 07:55:00
4:15 AM,46.4,46.4,100,30.10,10.0,SSE,5.8,-,N/A,,Clear,160,2012-10-23 08:15:00
4:35 AM,46.4,44.6,93,30.11,10.0,Calm,Calm,-,N/A,,Clear,0,2012-10-23 08:35:00
4:55 AM,46.4,44.6,93,30.11,10.0,Calm,Calm,-,N/A,,Clear,0,2012-10-23 08:55:00
5:15 AM,46.4,44.6,93,30.11,10.0,Calm,Calm,-,N/A,,Clear,0,2012-10-23 09:15:00
5:35 AM,44.6,42.8,93,30.11,10.0,Calm,Calm,-,N/A,,Clear,0,2012-10-23 09:35:00
5:55 AM,44.6,44.6,100,30.12,10.0,Calm,Calm,-,N/A,,Clear,0,2012-10-23 09:55:00
6:15 AM,44.6,42.8,93,30.12,10.0,Calm,Calm,-,N/A,,Clear,0,2012-10-23 10:15:00
6:35 AM,44.6,44.6,100,30.11,10.0,Calm,Calm,-,N/A,,Clear,0,2012-10-23 10:35:00
6:45 AM,44.6,44.6,100,30.11,10.0,Calm,Calm,-,N/A,,Clear,0,2012-10-23 10:45:00
9:45 AM,57.2,51.8,82,30.15,10.0,Calm,Calm,-,N/A,,Clear,0,2012-10-23 13:45:00
10:45 AM,62.6,51.8,68,30.13,10.0,Calm,Calm,-,N/A,,Clear,0,2012-10-23 14:45:00
11:45 AM,66.2,53.6,64,30.12,10.0,Calm,Calm,-,N/A,,Clear,0,2012-10-23 15:45:00
12:45 PM,73.4,55.4,53,30.10,10.0,Calm,Calm,-,N/A,,Clear,0,2012-10-23 16:45:00
2:45 PM,80.6,53.6,39,30.05,10.0,Calm,Calm,-,N/A,,Clear,0,2012-10-23 18:45:00
3:45 PM,78.8,55.4,44,30.04,10.0,Variable,3.5,-,N/A,,Clear,0,2012-10-23 19:45:00
5:45 PM,78.8,55.4,44,30.04,10.0,Calm,Calm,-,N/A,,Clear,0,2012-10-23 21:45:00
9:55 PM,59.0,57.2,94,30.08,10.0,Calm,Calm,-,N/A,,Clear,0,2012-10-24 01:55:00
10:15 PM,59.0,57.2,94,30.08,10.0,Calm,Calm,-,N/A,,Clear,0,2012-10-24 02:15:00
10:35 PM,59.0,57.2,94,30.08,10.0,Calm,Calm,-,N/A,,Clear,0,2012-10-24 02:35:00
10:55 PM,57.2,57.2,100,30.07,10.0,SE,3.5,-,N/A,,Clear,140,2012-10-24 02:55:00
11:15 PM,57.2,57.2,100,30.07,10.0,Calm,Calm,-,N/A,,Clear,0,2012-10-24 03:15:00
11:35 PM,57.2,57.2,100,30.07,10.0,Calm,Calm,-,N/A,,Clear,0,2012-10-24 03:35:00